Theta_e
339 340 341 342 340 339 341 342 344 346 346 345 344 345 344 345 344 342 336 336 336 336 338 337 335 337 340 336 336 336 336 336 332 331 331 336 337 332 331 332 331 332 326
341 342 342 342 340 339 340 341 341 342 343 343 344 343 342 343 343 341 336 337 336 337 339 338 335 336 339 334 334 330 332 340 333 339 338 332 330 327 330 332 336 333 328
343 344 342 342 340 338 339 339 340 340 340 340 340 339 339 338 337 336 337 337 337 339 340 340 335 338 336 331 329 339 338 340 339 337 338 338 336 335 329 338 338 337 337
344 344 343 342 342 339 339 339 338 339 339 339 339 339 339 338 338 337 338 340 340 343 341 341 338 341 336 332 331 336 337 338 336 337 338 339 338 327 322 332 327 330 324
344 343 343 343 343 341 340 340 339 339 339 339 338 338 339 340 339 339 340 337 339 340 340 342 342 341 338 342 335 338 337 334 331 335 336 330 329 330 320 337 322 323 321
344 343 343 343 343 342 340 340 339 338 338 338 337 337 338 340 340 340 339 336 336 337 338 341 341 341 337 337 338 333 336 332 335 332 332 331 327 329 322 339 334 338 326
345 344 343 343 342 341 340 338 337 337 337 336 335 335 336 337 338 337 336 336 335 336 337 339 340 341 338 334 339 334 338 339 339 336 336 336 333 325 327 330 335 328 326
345 344 344 343 341 339 338 337 336 335 334 334 334 333 334 335 337 336 337 338 337 336 337 339 341 341 340 333 339 341 341 342 340 340 339 338 336 331 325 335 332 325 322
345 344 343 341 339 338 336 334 334 333 332 332 335 332 335 342 339 335 336 338 339 340 339 338 340 340 341 335 335 340 342 342 342 340 341 342 338 334 328 338 334 326 324
343 343 340 337 337 335 333 333 332 332 332 331 331 332 335 334 333 332 336 337 337 338 339 340 340 340 341 339 333 340 341 341 342 339 340 341 340 333 331 338 334 328 326
343 341 338 336 336 334 333 332 332 332 332 332 332 336 333 333 333 332 332 335 338 336 337 338 340 341 339 339 334 336 342 341 343 342 342 342 342 340 331 329 327 328 326
342 340 337 336 336 335 334 334 333 333 333 333 333 334 333 335 338 341 335 339 340 339 335 336 339 340 341 339 339 332 336 340 341 343 341 342 343 341 339 329 330 328 326
343 341 338 337 337 336 336 336 335 335 335 335 335 334 333 335 343 343 342 343 344 342 340 335 335 338 340 339 339 335 331 335 340 344 341 342 343 342 341 336 330 330 329
348 347 340 337 338 337 337 337 338 338 338 338 338 338 336 338 341 345 346 344 343 344 344 338 339 336 341 340 338 338 334 335 334 336 342 342 342 342 340 339 334 330 328
349 348 343 338 338 339 339 339 340 341 341 342 342 342 344 342 343 344 341 343 345 343 346 344 343 341 342 342 340 339 337 338 335 333 333 341 342 342 342 339 339 335 334
349 347 342 340 341 345 343 345 345 347 347 345 344 344 343 343 343 343 344 343 341 340 341 342 343 342 343 343 342 342 340 337 337 338 335 336 341 340 342 337 337 340 336
350 349 346 344 337 339 347 344 342 343 343 343 344 344 346 344 343 343 344 344 344 344 343 342 341 341 341 339 339 338 339 340 343 342 341 338 337 339 340 343 343 344 343
349 348 348 340 340 339 341 342 340 338 340 341 344 343 342 342 344 345 344 344 345 344 343 343 343 344 343 342 341 340 338 339 338 340 342 342 339 339 341 342 342 342 344
349 349 347 346 343 339 342 343 342 338 339 338 341 342 343 344 345 345 345 344 344 343 342 341 342 342 341 341 340 341 339 339 340 340 342 342 341 341 342 342 342 342 342
349 349 348 347 346 343 341 343 340 337 338 339 340 343 345 345 346 343 343 343 342 342 341 341 341 342 342 341 342 340 340 342 341 340 342 343 342 343 342 343 342 342 342
349 349 349 349 346 345 344 341 340 339 338 338 339 343 345 345 344 344 341 341 340 340 339 339 340 341 341 341 341 338 338 336 337 338 340 342 341 342 343 344 343 342 343
348 348 350 349 345 337 337 336 337 337 336 337 341 341 344 346 344 342 342 342 342 342 341 340 340 340 341 341 342 337 337 338 339 340 341 341 340 338 338 342 342 343 342
348 349 350 349 345 335 336 336 336 336 337 343 341 343 344 343 342 341 342 341 339 339 338 338 340 340 341 341 341 341 340 340 340 339 337 338 337 338 339 342 342 343 342
348 349 350 348 343 337 336 335 335 338 342 343 343 342 343 342 341 340 340 339 334 336 337 340 340 341 340 339 340 341 341 340 338 339 339 337 339 338 340 340 342 342 342
348 350 350 346 340 338 334 335 342 344 343 343 344 344 342 340 338 337 332 334 338 339 340 340 340 339 340 340 339 340 341 340 339 338 339 339 339 338 338 340 342 341 341
352 351 351 346 340 338 337 339 341 344 345 345 344 342 340 336 334 333 337 339 340 340 341 339 339 339 339 339 339 339 339 340 340 339 339 338 339 339 340 341 340 341 341
Wind_Speed
25 21 19 16 17 17 18 18 17 16 15 14 13 14 13 14 12 11 11 10 9 7 7 8 8 8 9 8 9 9 10 10 11 11 13 15 15 14 17 15 14 15 16
26 21 20 16 15 17 17 17 16 16 15 14 13 13 12 12 11 10 10 8 8 6 7 7 8 8 9 9 10 9 12 12 12 13 13 15 13 14 16 16 15 16 15
24 22 20 18 16 17 17 16 16 16 15 15 14 12 12 12 11 10 8 7 6 6 5 6 7 7 8 8 10 10 12 11 13 13 13 13 13 11 14 15 13 14 14
24 22 21 19 17 16 16 15 14 14 14 14 12 11 11 12 11 10 8 6 5 5 6 6 6 7 8 8 10 11 12 13 11 13 11 11 9 9 13 14 12 14 12
24 22 21 19 17 16 15 15 13 13 13 13 11 11 11 11 11 10 8 6 6 6 6 7 6 5 7 7 9 11 12 12 13 12 11 10 8 9 11 11 12 12 12
23 22 20 18 16 15 14 14 13 13 13 12 11 10 10 11 10 9 7 5 5 5 5 5 5 7 9 10 8 12 13 14 12 12 11 10 7 9 11 11 12 12 11
24 22 20 18 16 14 14 13 13 13 12 11 11 11 11 11 9 8 7 6 5 4 4 4 3 5 9 9 10 13 14 13 11 10 9 8 6 8 10 10 10 10 10
22 21 20 18 15 14 14 13 12 12 11 11 10 10 10 9 9 7 5 5 5 5 6 5 4 4 9 9 10 10 13 11 10 9 8 7 6 6 8 10 8 8 10
20 20 18 17 15 14 13 12 12 12 11 11 10 9 9 8 7 6 5 4 4 4 4 5 4 3 7 11 12 12 11 10 9 9 8 6 4 5 6 9 8 7 8
20 18 17 16 15 14 14 12 11 11 11 10 9 9 8 8 7 6 5 6 6 5 4 4 4 4 5 11 12 13 11 8 8 8 8 6 4 4 7 10 8 7 8
20 18 17 16 15 13 13 12 12 11 10 9 9 10 8 8 7 6 6 5 4 4 3 4 5 5 6 10 11 14 13 12 9 9 9 8 6 4 5 7 8 8 9
20 18 16 15 14 14 13 12 11 11 10 9 9 9 9 8 7 6 6 5 4 3 3 3 5 6 7 8 12 14 15 14 10 9 8 9 7 6 5 6 8 8 9
18 16 16 15 14 13 12 12 11 10 10 9 9 8 8 10 8 5 6 6 6 5 4 5 4 6 7 9 10 15 14 15 14 11 9 9 8 9 6 7 8 9 9
18 15 15 16 15 14 13 12 12 11 11 10 9 9 10 9 10 8 8 9 9 7 6 5 5 6 6 8 11 14 15 15 15 15 13 13 11 10 8 8 9 10 10
17 16 15 15 14 13 16 15 14 13 12 11 11 10 10 11 10 11 9 9 7 9 9 8 6 7 7 7 9 13 15 15 16 16 16 15 14 13 13 11 11 11 11
17 11 15 11 12 15 18 15 13 14 14 13 13 12 12 12 11 11 10 9 10 9 9 10 10 10 10 10 8 10 14 15 15 16 17 19 18 14 14 13 14 13 13
19 14 18 9 10 23 17 14 13 16 17 11 12 13 13 12 9 11 12 11 9 10 11 12 14 16 17 16 16 12 12 14 14 16 16 17 18 18 18 16 15 15 15
20 13 15 3 14 19 18 18 15 12 13 12 13 13 12 11 10 10 14 13 12 15 15 14 16 17 18 20 20 19 17 19 15 19 18 18 17 17 16 15 16 17 16
20 21 15 14 13 8 20 18 18 14 11 11 13 12 12 11 11 10 10 11 11 14 15 15 18 19 18 18 18 20 22 22 18 19 18 19 17 17 19 19 19 19 17
22 21 17 10 10 9 19 19 13 15 8 7 10 13 10 11 10 7 6 8 11 14 17 17 17 19 19 18 18 19 17 18 22 19 18 20 19 18 18 17 17 17 20
19 21 17 12 8 5 9 15 7 16 15 12 13 9 5 8 9 7 6 10 12 12 11 15 18 19 20 18 19 19 19 17 18 19 20 17 17 17 19 18 17 17 16
16 15 13 8 2 1 3 6 3 10 6 4 4 6 6 5 7 7 8 10 12 12 14 15 16 17 17 18 18 17 18 19 19 17 18 16 16 19 21 17 16 16 15
16 11 12 8 5 5 5 6 8 7 9 5 4 3 0 4 7 8 9 11 14 17 16 14 14 14 15 15 15 15 6 9 8 16 16 15 18 17 17 16 16 15 13
16 12 13 7 8 8 4 9 13 10 6 5 3 0 4 8 9 10 13 16 16 14 11 9 11 13 14 15 15 18 20 12 4 5 14 17 19 18 16 16 14 12 10
14 12 11 9 10 8 10 12 7 3 3 1 2 6 9 12 12 15 14 12 10 9 7 7 9 11 14 14 16 16 18 19 15 10 6 4 6 12 16 17 12 11 10
10 8 9 10 11 8 12 8 3 0 1 3 5 9 12 13 14 12 10 9 7 6 6 8 8 7 8 10 13 15 16 17 19 16 11 3 2 3 8 12 14 13 10
Wind_Direction
159 153 151 150 149 152 152 153 153 152 150 150 147 143 143 149 149 146 139 139 139 140 136 135 136 132 140 135 135 138 135 133 125 121 120 127 125 122 127 134 126 121 120
154 155 156 154 149 150 149 148 151 150 150 150 149 145 147 154 156 151 146 150 148 142 140 139 145 135 140 139 146 144 135 133 121 123 125 121 123 125 129 124 126 124 122
158 158 158 159 152 146 149 150 148 150 150 150 148 149 152 155 156 157 152 157 153 146 136 138 144 140 140 141 138 130 127 127 130 129 126 125 123 125 122 128 128 126 132
162 162 160 161 154 150 151 151 151 153 153 153 153 155 157 158 160 159 152 156 149 151 140 141 153 146 144 145 144 147 141 139 135 131 128 138 127 123 137 146 144 145 137
163 164 161 162 160 157 157 156 153 156 154 157 158 161 161 161 162 159 158 160 152 148 151 152 147 145 150 150 154 150 145 144 141 134 134 133 135 133 140 137 141 142 139
167 163 163 164 167 163 160 161 159 159 161 161 160 160 163 164 166 165 169 162 158 156 155 145 163 165 172 165 166 161 146 143 139 135 134 133 134 138 148 151 143 143 145
168 166 165 168 171 170 169 168 166 163 166 165 161 161 164 168 171 172 172 162 168 166 144 135 168 187 179 175 166 162 170 159 153 148 141 131 130 147 159 163 162 159 159
168 168 171 172 177 177 176 174 172 170 171 170 166 164 167 167 169 167 167 164 169 163 168 153 172 211 178 183 177 169 186 179 175 174 163 145 136 151 168 174 170 165 164
172 171 175 177 181 183 180 179 178 178 177 174 171 169 169 167 173 164 160 159 157 167 163 157 168 203 195 183 194 185 177 184 190 185 181 170 154 162 171 181 187 180 177
177 178 182 183 187 187 182 182 185 183 180 178 175 175 174 176 177 170 166 163 164 168 163 163 177 192 203 196 198 196 201 197 191 189 199 197 187 180 181 191 199 198 192
184 187 190 191 191 191 190 186 185 186 183 185 183 182 187 185 183 176 175 169 167 168 176 164 173 196 200 206 210 205 205 197 199 211 216 216 218 210 199 207 203 209 207
190 193 199 200 198 196 197 195 191 188 188 191 195 194 191 192 187 182 184 186 186 194 203 208 184 187 206 213 217 217 218 222 229 217 226 228 236 229 227 220 218 215 216
193 202 205 205 206 207 209 205 203 200 199 200 204 206 204 205 202 216 219 235 242 250 248 224 230 206 199 213 221 225 228 229 230 226 226 232 234 241 243 235 229 226 224
198 206 209 209 210 210 214 217 219 213 212 213 212 218 225 217 218 235 263 263 252 269 268 246 246 223 221 216 224 227 231 239 237 237 231 243 245 240 248 244 240 234 232
205 207 207 211 215 222 224 214 223 223 222 219 221 219 219 225 240 245 259 260 243 249 261 253 259 252 244 245 231 235 239 239 239 238 238 239 247 256 249 245 244 244 240
214 212 204 219 240 244 240 224 226 227 225 222 225 222 231 234 241 251 260 264 256 258 259 266 265 270 259 248 251 239 239 241 247 248 243 238 244 255 251 252 247 246 249
216 215 197 147 143 234 243 246 244 241 239 248 243 235 231 234 237 250 249 262 269 265 267 257 257 259 260 261 262 260 243 246 251 255 253 250 246 248 250 253 251 248 250
222 227 221 233 357 236 231 237 246 251 242 250 253 249 242 228 234 252 257 260 267 264 263 260 257 259 264 262 263 258 257 245 254 249 249 253 249 243 251 251 258 257 252
235 222 239 275 302 270 230 247 235 246 235 256 265 249 243 241 247 256 273 259 269 271 273 272 267 257 262 266 264 262 258 244 251 243 245 250 252 249 252 260 261 260 254
247 243 249 289 309 298 227 259 268 224 221 271 284 243 252 240 255 252 270 268 272 274 275 270 266 259 264 263 262 258 242 244 245 247 244 250 248 254 256 260 258 265 263
249 245 250 266 326 285 267 290 278 214 219 257 292 224 231 242 243 265 276 274 278 285 286 276 269 262 255 255 259 252 241 246 255 249 242 251 242 255 257 258 259 264 268
240 252 233 237 295 167 338 2 164 174 196 243 249 208 221 257 273 285 285 283 290 289 288 283 270 263 258 249 250 244 257 257 252 240 244 250 255 255 255 255 260 270 269
238 244 232 248 195 159 101 75 119 132 149 181 233 215 185 318 312 299 294 300 299 295 290 277 262 256 258 249 240 228 222 231 227 241 254 264 254 253 249 241 257 263 264
235 225 212 229 201 177 157 133 126 143 164 191 199 49 358 337 326 312 310 308 305 299 293 277 260 254 256 250 241 233 233 241 217 246 248 256 246 238 236 236 248 252 263
235 220 214 205 194 171 152 154 138 150 179 181 53 8 345 332 324 317 316 315 314 307 298 294 278 261 256 252 247 240 236 237 238 232 195 142 227 236 230 233 242 249 254
215 191 193 195 189 180 160 158 155 303 76 29 357 343 334 329 326 328 333 334 330 314 311 316 302 271 246 242 241 243 237 233 229 213 210 243 266 196 214 222 230 242 241